Torna al catalogo

STARLINK-3807

AttivoComunicazioniVLEO
NORAD 52353·PAYLOAD·🇺🇸 United States

Lanciato Apr 29, 2022 da Cape Canaveral Space Force Station

Loading…

Prossimi Passaggi (prossime 24 ore)

TLE

AggiornatoSource: CelesTrak SupGP

Epoca: Sep 15, 2026, 02:05 UTC

1 52353C 22045Y   26258.08729167 -.00035290  00000+0 -10712-2 0  2585
2 52353  53.1593  55.1752 0001153  80.9396 231.1318 15.33555221    18

Traccia STARLINK-3807 in tempo reale con AllMySat

Download on the App Store